User: anonymous   Login
Location: Chevoux
(46.3801°N, 4.9476°E)
Time: 14:13:52
(UTC+00:00)
Language:

Transit 2A Rocket - Orbit

View from above orbital plane
View from above orbital plane
View from above satellite
View from above satellite

Ground track
Ground track

The orbit data is extracted from the following two-line orbital elements,

1 00047U 60007C   21127.92340063 -.00000011  00000-0  22545-4 0  9999
2 00047  66.6677   7.3860 0220667  65.0186 297.3661 14.42149208181463
Epoch (UTC): 07 May 2021 22:09:41
Eccentricity: 0.0220667
inclination: 66.6677°
perigee height: 594 km
apogee height: 909 km
right ascension of ascending node: 7.3860°
argument of perigee: 65.0186°
revolutions per day: 14.42149208
mean anomaly at epoch: 297.3661°
orbit number at epoch: 18146

The dashed part of the orbit path shows where the satellite is in the earth's shadow,  

DLR